Flag for Switzerland Weather past 2 weeks in Lugano, Switzerland

Now
41 °F

Clear.


Feels Like: 41 °F
Forecast: 47 / 68 °F
Wind: 1 mph from North

Location: Lugano Airport

Current Time: Oct 25, 2014 at 5:53:59 AM

Latest Report: Oct 25, 2014 at 5:20 AM


Visibility: 10 mi

Pressure: 30.09 "Hg

Humidity: 93%

Dew point: 39 °F

Location of LuganoLocation

Historic Weather in Lugano — Graph

°F

Lugano temperature yesterday

Maximum temperature yesterday: 72 °F (at 3:20 PM)
Minimum temperature yesterday: 43 °F (at 7:50 AM)
Average temperature yesterday: 56 °F

Past Weeks' High & Low Weather Summary

 TemperatureHumidityPressure
High75 °F (Oct 17, 3:20 PM)100% (Oct 10, 4:20 AM)30.33 "Hg (Oct 10, 4:20 AM)
Low41 °F (Oct 25, 4:20 AM)25% (Oct 22, 2:20 AM)29.68 "Hg (Oct 21, 9:50 PM)
Average60 °F80%30.00 "Hg
* Reported Oct 10 4:20 AM — Oct 25 4:50 AM, Lugano, Weather by CustomWeather, © 2014

Note: Actual official high and low records may vary slightly from our data, if they occured in-between our weather recording intervals... More about our weather records

Advertising

Lugano weather history for previous 24 hours

 ConditionsComfort  
Time TempWeatherWind HumidityBarometerVisibility
4:50 AM
Oct 25
41 °FQuite cool.3 mph93%30.09 "HgN/A
4:20 AM41 °FClear.3 mph93%30.09 "Hg10 mi
3:50 AM43 °FClear.1 mph93%30.07 "Hg10 mi
3:20 AM45 °FClear.1 mph87%30.07 "Hg10 mi
2:50 AM43 °FClear.5 mph93%30.07 "Hg10 mi
2:20 AM45 °FClear.2 mph87%30.07 "Hg10 mi
1:50 AM45 °FClear.2 mph87%30.07 "Hg10 mi
1:20 AM45 °FClear.2 mph93%30.07 "Hg10 mi
12:50 AM45 °FClear.2 mph87%30.04 "Hg10 mi
12:20 AM45 °FClear.5 mph87%30.04 "Hg10 mi
11:50 PM
Oct 24
45 °FClear.1 mph93%30.04 "Hg10 mi
11:20 PM46 °FClear.1 mph87%30.04 "Hg10 mi
10:50 PM46 °FClear.2 mph93%30.04 "Hg10 mi
10:20 PM48 °FClear.2 mph82%30.01 "Hg10 mi
9:50 PM46 °FClear.2 mph93%30.01 "Hg10 mi
9:20 PM48 °FClear.3 mph87%30.01 "Hg10 mi
8:50 PM50 °FClear.1 mph76%29.98 "Hg10 mi
8:20 PM52 °FClear.1 mph77%29.98 "Hg10 mi
7:50 PM52 °FClear.1 mph82%29.98 "Hg10 mi
7:20 PM55 °FCool.1 mph67%29.95 "HgN/A
6:50 PM55 °FSunny.3 mph67%29.95 "Hg10 mi
6:20 PM57 °FSunny.2 mph63%29.95 "Hg10 mi
5:50 PM63 °FSunny.1 mph49%29.92 "Hg10 mi
5:20 PM68 °FSunny.2 mph43%29.92 "Hg10 mi
4:50 PM68 °FSunny.2 mph43%29.92 "Hg10 mi
4:20 PM72 °FSunny.2 mph33%29.92 "Hg10 mi
3:50 PM70 °FPassing clouds.3 mph33%29.92 "HgN/A
3:20 PM72 °FSunny.3 mph33%29.92 "Hg10 mi
2:50 PM70 °FSunny.2 mph35%29.95 "Hg10 mi
2:20 PM68 °FSunny.2 mph33%29.95 "Hg10 mi
1:50 PM68 °FSunny.2 mph38%29.95 "Hg10 mi
1:20 PM66 °FSunny.2 mph40%29.95 "Hg10 mi
12:50 PM64 °FSunny.1 mph46%29.98 "Hg10 mi
12:20 PM61 °FSunny.6 mph45%29.98 "Hg10 mi
11:50 AM59 °FSunny.5 mph45%29.98 "Hg10 mi
11:20 AM59 °FSunny.2 mph51%29.95 "Hg10 mi
10:50 AM57 °FSunny.2 mph55%29.98 "Hg10 mi
10:20 AM55 °FSunny.1 mph63%29.95 "Hg10 mi
9:50 AM52 °FSunny.2 mph62%29.95 "Hg10 mi
9:20 AM46 °FSunny.5 mph76%29.95 "Hg10 mi
8:50 AM45 °FClear.5 mph81%29.95 "Hg10 mi
8:20 AM43 °FClear.2 mph87%29.95 "Hg10 mi
7:50 AM43 °FClear.1 mph81%29.92 "Hg10 mi
7:20 AM45 °FClear.1 mph76%29.92 "Hg10 mi
6:50 AM46 °FClear.1 mph71%29.92 "Hg10 mi
6:20 AM48 °FPassing clouds.3 mph66%29.92 "HgN/A
5:50 AM48 °FClear.3 mph62%29.92 "Hg10 mi
5:20 AM52 °FPassing clouds.6 mph58%29.92 "HgN/A
Weather by CustomWeather, © 2014

See weather overviewHow to use our weather pages